"2010-08-26 00:00:00",103981,3.773,92.2,3.376,0.221,21.55,110.1093,25.18,26.09,18.48,0,111.3,13.08,26.02,54.2
"2010-08-26 00:00:30",103982,3.928,97.6,4.899,0.267,21.56,110.1108,25.18,26.09,18.58,0,111.3,13.08,26.02,59.6
"2010-08-26 00:01:00",103983,4.009,89.7,3.818,0.118,21.48,110.1136,25.19,26.08,18.72,0,111.3,13.08,26.03,51.7
"2010-08-26 00:01:30",103984,3.78,92.1,5.143,0.08,21.59,110.1161,25.19,26.08,18.72,0,111.3,13.09,26.03,54.1
"2010-08-26 00:02:00",103985,3.705,97,3.227,0.198,21.6,110.1155,25.19,26.08,18.54,0,111.3,13.09,26.03,59.0
"2010-08-26 00:02:30",103986,3.424,98.3,3.902,0.095,21.58,110.121,25.21,26.08,18.5,0,111.3,13.09,26.05,60.3
"2010-08-26 00:03:00",103987,3.329,97.9,4.558,0.139,21.53,110.1277,25.22,26.08,18.44,0,111.3,13.09,26.06,59.9
"2010-08-26 00:03:30",103988,3.564,93,5.769,0.234,21.59,110.1302,25.23,26.09,18.57,0,111.3,13.09,26.07,55.0
"2010-08-26 00:04:00",103989,3.751,96.7,4.758,0.414,21.62,110.1307,25.23,26.09,18.6,0,111.3,13.09,26.07,58.7
"2010-08-26 00:04:30",103990,4.128,87,7.372,0.296,21.65,110.1335,25.24,26.1,18.52,0,111.3,13.08,26.08,49.0
"2010-08-26 00:05:00",103991,4.281,88.5,7.508,0.189,21.66,110.134,25.24,26.1,18.54,0,111.3,13.09,26.08,50.5
"2010-08-26 00:05:30",103992,4.02,104,4.259,0.338,21.62,110.1332,25.24,26.09,18.38,0,111.3,13.09,26.08,66.0
"2010-08-26 00:06:00",103993,4.083,112.1,4.598,0.32,21.6,110.1326,25.24,26.08,18.16,0,111.3,13.09,26.08,74.1
"2010-08-26 00:06:30",103994,4.033,106.1,2.714,0.497,21.6,110.1338,25.24,26.1,18.08,0,111.3,13.09,26.08,68.1
"2010-08-26 00:07:00",103995,4.142,114,2.047,0.182,21.61,110.1344,25.24,26.1,18.01,0,111.3,13.09,26.08,76.0
"2010-08-26 00:07:30",103996,3.396,113.1,4.857,0.195,21.62,110.1361,25.24,26.09,18.02,0,111.3,13.09,26.08,75.1
"2010-08-26 00:08:00",103997,3.387,104.7,7.244,0.163,21.59,110.1337,25.24,26.11,18.01,0,111.3,13.09,26.08,66.7
"2010-08-26 00:08:30",103998,3.526,98.2,2.993,0.128,21.62,110.1338,25.24,26.1,18.01,0,111.3,13.09,26.08,60.2
"2010-08-26 00:09:00",103999,3.401,103.8,6.183,0.237,21.61,110.1335,25.24,26.1,18.04,0,111.3,13.09,26.08,65.8
"2010-08-26 00:09:30",104000,3.342,88.4,5.517,0.226,21.56,110.1321,25.23,26.09,18.02,0,111.3,13.08,26.07,50.4
"2010-08-26 00:10:00",104001,3.079,92.8,4.864,0.135,21.54,110.1299,25.23,26.1,17.96,0,111.3,13.09,26.07,54.8
"2010-08-26 00:10:30",104002,3.64,90.4,3.973,0.237,21.55,110.1305,25.23,26.1,18.07,0,111.3,13.09,26.07,52.4
"2010-08-26 00:11:00",104003,3.518,84,5.434,0.204,21.61,110.1333,25.24,26.11,18.13,0,111.3,13.09,26.08,46.0
"2010-08-26 00:11:30",104004,3.765,84.2,2.979,0.128,21.64,110.1341,25.24,26.11,18.19,0,111.3,13.09,26.08,46.2
"2010-08-26 00:12:00",104005,3.495,84.3,4.41,0.21,21.71,110.1347,25.24,26.1,17.91,0,111.3,13.08,26.08,46.3
"2010-08-26 00:12:30",104006,3.363,81.2,3.475,0.209,21.7,110.1367,25.25,26.11,18.1,0,111.3,13.08,26.09,43.2
"2010-08-26 00:13:00",104007,3.231,88,5.175,0.161,21.74,110.1386,25.25,26.12,18.28,0,111.3,13.08,26.09,50.0
"2010-08-26 00:13:30",104008,3.216,92.1,4.71,0.179,21.73,110.148,25.27,26.14,18.01,0,111.3,13.08,26.11,54.1
"2010-08-26 00:14:00",104009,3.711,89.3,3.511,0.337,21.68,110.1527,25.29,26.12,17.77,0,111.3,13.08,26.13,51.3
"2010-08-26 00:14:30",104010,3.946,89.5,5.796,0.299,21.66,110.1599,25.31,26.13,17.85,0,111.3,13.08,26.15,51.5
"2010-08-26 00:15:00",104011,3.74,88.6,5.709,0.237,21.69,110.161,25.31,26.16,17.83,0,111.3,13.08,26.15,50.6
"2010-08-26 00:15:30",104012,4.172,100.6,7.156,0.445,21.76,110.1615,25.31,26.15,17.84,0,111.3,13.08,26.15,62.6
"2010-08-26 00:16:00",104013,3.932,109.1,4.996,0.213,21.71,110.1637,25.32,26.15,17.7,0,111.3,13.08,26.16,71.1
"2010-08-26 00:16:30",104014,3.784,106.9,3.891,0.187,21.72,110.164,25.32,26.15,17.45,0,111.3,13.08,26.16,68.9
"2010-08-26 00:17:00",104015,4.048,112,2.205,0.12,21.69,110.1665,25.32,26.15,17.31,0,111.3,13.08,26.16,74.0
"2010-08-26 00:17:30",104016,3.505,111.4,5.9,0.274,21.71,110.1677,25.33,26.14,17.35,0,111.3,13.08,26.17,73.4
"2010-08-26 00:18:00",104017,3.414,96,3.385,0.205,21.7,110.1617,25.31,26.14,17.36,0,111.3,13.09,26.15,58.0
"2010-08-26 00:18:30",104018,4.534,90.4,3.125,0.391,21.7,110.162,25.31,26.14,17.37,0,111.3,13.09,26.15,52.4
"2010-08-26 00:19:00",104019,4.442,89.9,2.197,0.183,21.71,110.1668,25.32,26.14,17.29,0,111.3,13.09,26.16,51.9
"2010-08-26 00:19:30",104020,4.196,91.4,1.677,0.153,21.72,110.1677,25.33,26.15,17.24,0,111.3,13.09,26.17,53.4
"2010-08-26 00:20:00",104021,3.93,90.8,1.397,0.126,21.72,110.1677,25.33,26.16,17.24,0,111.3,13.09,26.17,52.8
"2010-08-26 00:20:30",104022,3.779,89.4,1.968,0.177,21.73,110.1669,25.32,26.16,17.15,0,111.3,13.09,26.16,51.4
"2010-08-26 00:21:00",104023,3.434,100.3,5.105,0.151,21.73,110.1636,25.31,26.15,17.19,0,111.3,13.09,26.16,62.3
"2010-08-26 00:21:30",104024,3.608,100.7,3.513,0.341,21.66,110.1619,25.31,26.15,17.23,0,111.3,13.09,26.15,62.7
"2010-08-26 00:22:00",104025,3.024,110.1,3.4,0.172,21.72,110.1574,25.3,26.14,17.27,0,111.3,13.09,26.14,72.1
"2010-08-26 00:22:30",104026,3.623,101.1,4.572,0.406,21.7,110.1574,25.3,26.15,17.42,0,111.3,13.09,26.14,63.1
"2010-08-26 00:23:00",104027,3.971,96.8,4.022,0.221,21.7,110.1577,25.3,26.14,17.46,0,111.3,13.09,26.14,58.8
"2010-08-26 00:23:30",104028,3.598,96.7,3.37,0.252,21.73,110.1597,25.3,26.15,17.49,0,111.3,13.09,26.15,58.7
"2010-08-26 00:24:00",104029,3.216,95,4.188,0.21,21.71,110.1616,25.31,26.15,17.51,0,111.3,13.09,26.15,57.0
"2010-08-26 00:24:30",104030,3.605,88.9,2.413,0.504,21.74,110.1563,25.3,26.13,17.28,0,111.3,13.09,26.14,50.9
"2010-08-26 00:25:00",104031,3.875,88.7,1.193,0.12,21.79,110.1639,25.32,26.15,17.01,0,111.3,13.09,26.16,50.7
"2010-08-26 00:25:30",104032,3.755,89.2,1.247,0.1,21.77,110.1675,25.32,26.15,16.97,0,111.3,13.09,26.17,51.2
"2010-08-26 00:26:00",104033,3.516,89.2,1.688,0.138,21.75,110.1683,25.33,26.15,17.1,0,111.3,13.09,26.17,51.2
"2010-08-26 00:26:30",104034,3.591,91.7,1.941,0.147,21.69,110.1683,25.33,26.17,17.22,0,111.3,13.09,26.17,53.7
"2010-08-26 00:27:00",104035,3.561,94.1,2.121,0.194,21.73,110.1683,25.33,26.17,17.48,0,111.3,13.09,26.17,56.1
"2010-08-26 00:27:30",104036,3.271,101.2,2.806,0.146,21.75,110.1683,25.33,26.17,17.62,0,111.3,13.09,26.17,63.2
"2010-08-26 00:28:00",104037,2.984,103,3.037,0.36,21.71,110.1683,25.33,26.18,17.71,0,111.3,13.09,26.17,65.0
"2010-08-26 00:28:30",104038,2.81,107.3,3.107,0.125,21.65,110.1683,25.33,26.17,17.58,0,111.3,13.09,26.17,69.3
"2010-08-26 00:29:00",104039,2.842,93.7,5.599,0.196,21.68,110.1683,25.33,26.17,17.48,0,111.3,13.09,26.17,55.7
"2010-08-26 00:29:30",104040,2.788,88.2,5.904,0.41,21.7,110.1683,25.33,26.19,17.1,0,111.3,13.08,26.17,50.2
"2010-08-26 00:30:00",104041,3.376,97.9,4.631,0.221,21.75,110.1683,25.33,26.17,16.91,0,111.3,13.08,26.17,59.9
"2010-08-26 00:30:30",104042,3.785,90.2,5.873,0.355,21.76,110.1681,25.33,26.17,17.41,0,111.3,13.08,26.17,52.2
"2010-08-26 00:31:00",104043,3.81,88.2,3.661,0.209,21.72,110.1683,25.33,26.19,17.07,0,111.3,13.08,26.17,50.2
"2010-08-26 00:31:30",104044,3.901,86.4,2.056,0.21,21.78,110.1658,25.32,26.17,16.77,0,111.3,13.08,26.16,48.4
"2010-08-26 00:32:00",104045,4.122,88.1,1.726,0.24,21.77,110.161,25.31,26.17,16.82,0,111.3,13.08,26.15,50.1
"2010-08-26 00:32:30",104046,3.919,90,3.251,0.329,21.78,110.1574,25.3,26.18,16.78,0,111.3,13.08,26.14,52.0
"2010-08-26 00:33:00",104047,3.198,86.5,4.686,0.191,21.81,110.1526,25.29,26.17,16.9,0,111.3,13.08,26.13,48.5
"2010-08-26 00:33:30",104048,3.203,82.4,3.506,0.176,21.82,110.1529,25.29,26.16,16.96,0,111.3,13.08,26.13,44.4
"2010-08-26 00:34:00",104049,3.473,83.2,2.454,0.295,21.85,110.1552,25.29,26.17,16.91,0,111.3,13.08,26.13,45.2
"2010-08-26 00:34:30",104050,3.155,80.7,5.812,0.162,21.87,110.1613,25.31,26.17,16.89,0,111.3,13.09,26.15,42.7
"2010-08-26 00:35:00",104051,3.519,84.8,2.192,0.15,21.78,110.1622,25.31,26.18,16.82,0,111.3,13.09,26.15,46.8
"2010-08-26 00:35:30",104052,3.333,92.6,3.432,0.16,21.8,110.1616,25.31,26.16,17.05,0,111.3,13.09,26.15,54.6
"2010-08-26 00:36:00",104053,3.315,92.1,1.302,0.103,21.74,110.1543,25.29,26.17,17.02,0,111.3,13.09,26.13,54.1
"2010-08-26 00:36:30",104054,3.3,93.1,1.874,0.16,21.77,110.1484,25.28,26.17,17.01,0,111.3,13.09,26.12,55.1
"2010-08-26 00:37:00",104055,3.521,91.4,3.075,0.171,21.74,110.1476,25.27,26.17,16.94,0,111.3,13.09,26.11,53.4
"2010-08-26 00:37:30",104056,3.404,91.4,3.002,0.179,21.78,110.1487,25.28,26.16,17.11,0,111.3,13.09,26.12,53.4
"2010-08-26 00:38:00",104057,3.149,95.2,2.714,0.13,21.82,110.149,25.28,26.17,17.11,0,111.3,13.09,26.12,57.2
"2010-08-26 00:38:30",104058,3.268,102.4,2.864,0.174,21.78,110.1456,25.27,26.17,17.24,0,111.3,13.09,26.11,64.4
"2010-08-26 00:39:00",104059,3.257,97.5,3.949,0.184,21.78,110.1439,25.26,26.16,17.09,0,111.3,13.09,26.10,59.5
"2010-08-26 00:39:30",104060,3.448,98.1,3.239,0.079,21.81,110.1434,25.26,26.16,16.9,0,111.3,13.09,26.10,60.1
"2010-08-26 00:40:00",104061,3.736,92.4,1.388,0.203,21.73,110.1445,25.27,26.15,17.54,0,111.3,13.09,26.11,54.4
"2010-08-26 00:40:30",104062,3.613,90.7,3.626,0.13,21.83,110.147,25.27,26.17,17.29,0,111.3,13.09,26.11,52.7
"2010-08-26 00:41:00",104063,3.395,94.6,1.132,0.07,21.74,110.1484,25.28,26.17,16.86,0,111.3,13.09,26.12,56.6
"2010-08-26 00:41:30",104064,3.232,92.2,3.155,0.102,21.73,110.1501,25.28,26.16,16.78,0,111.3,13.09,26.12,54.2
"2010-08-26 00:42:00",104065,3.166,87,2.15,0.133,21.84,110.1554,25.29,26.17,16.77,0,111.3,13.09,26.13,49.0
"2010-08-26 00:42:30",104066,3.056,89.1,2.789,0.11,21.85,110.1549,25.29,26.17,16.72,0,111.3,13.09,26.13,51.1
"2010-08-26 00:43:00",104067,2.987,90.4,1.599,0.086,21.85,110.1552,25.29,26.18,16.67,0,111.3,13.09,26.13,52.4
"2010-08-26 00:43:30",104068,2.892,88.3,2.464,0.165,21.86,110.1543,25.29,26.19,16.72,0,111.3,13.09,26.13,50.3
"2010-08-26 00:44:00",104069,2.797,89.1,1.758,0.096,21.86,110.1479,25.27,26.17,16.71,0,111.3,13.09,26.11,51.1
"2010-08-26 00:44:30",104070,2.624,90.4,2.35,0.212,21.86,110.1448,25.27,26.16,16.67,0,111.3,13.09,26.11,52.4
"2010-08-26 00:45:00",104071,2.618,89.5,5.333,0.08,21.81,110.1448,25.27,26.17,16.6,0,111.3,13.09,26.11,51.5
"2010-08-26 00:45:30",104072,3.229,82.3,3.487,0.381,21.87,110.1434,25.26,26.17,16.83,0,111.3,13.09,26.10,44.3
"2010-08-26 00:46:00",104073,3.198,91.1,7.531,0.147,21.89,110.144,25.26,26.17,16.75,0,111.3,13.09,26.10,53.1
"2010-08-26 00:46:30",104074,2.875,95.9,2.502,0.115,21.85,110.144,25.26,26.19,16.67,0,111.3,13.09,26.10,57.9
"2010-08-26 00:47:00",104075,2.945,94.9,4.697,0.271,21.84,110.1445,25.27,26.17,16.61,0,111.3,13.09,26.11,56.9
"2010-08-26 00:47:30",104076,3.104,107,3.894,0.106,21.91,110.1468,25.27,26.17,16.67,0,111.3,13.09,26.11,69.0
"2010-08-26 00:48:00",104077,3.367,107.2,2.739,0.094,21.89,110.1523,25.29,26.18,16.72,0,111.3,13.09,26.13,69.2
"2010-08-26 00:48:30",104078,3.074,108.4,4.558,0.161,21.9,110.1559,25.3,26.19,16.66,0,111.3,13.08,26.14,70.4
"2010-08-26 00:49:00",104079,2.656,105.3,7.943,0.149,21.91,110.1602,25.31,26.18,16.62,0,111.3,13.08,26.15,67.3
"2010-08-26 00:49:30",104080,2.671,104.6,2.469,0.257,21.9,110.1611,25.31,26.19,16.63,0,111.3,13.08,26.15,66.6
"2010-08-26 00:50:00",104081,2.38,110.5,6,0.184,21.89,110.1644,25.32,26.19,16.58,0,111.3,13.08,26.16,72.5
"2010-08-26 00:50:30",104082,2.127,104.7,3.43,0.155,21.84,110.1609,25.31,26.19,16.56,0,111.3,13.08,26.15,66.7
"2010-08-26 00:51:00",104083,2.261,111.3,5.324,0.12,21.85,110.1574,25.3,26.17,16.62,0,111.3,13.09,26.14,73.3
"2010-08-26 00:51:30",104084,2.357,113.6,4.626,0.136,21.85,110.1561,25.3,26.18,16.73,0,111.3,13.09,26.14,75.6
"2010-08-26 00:52:00",104085,2.797,105.3,5.159,0.193,21.85,110.1537,25.29,26.19,16.81,0,111.3,13.09,26.13,67.3
"2010-08-26 00:52:30",104086,3.02,99.9,1.338,0.127,21.91,110.1491,25.28,26.16,16.55,0,111.3,13.09,26.12,61.9
"2010-08-26 00:53:00",104087,3.149,96.8,3.865,0.245,21.88,110.1494,25.28,26.18,16.51,0,111.3,13.09,26.12,58.8
"2010-08-26 00:53:30",104088,2.876,91.5,2.553,0.12,21.9,110.1492,25.28,26.17,16.5,0,111.3,13.09,26.12,53.5
"2010-08-26 00:54:00",104089,2.876,90.5,2.9,0.183,21.94,110.1507,25.28,26.16,16.57,0,111.3,13.09,26.12,52.5
"2010-08-26 00:54:30",104090,2.465,88.5,2.222,0.121,21.99,110.1539,25.29,26.16,16.75,0,111.3,13.09,26.13,50.5
"2010-08-26 00:55:00",104091,2.395,89.1,2.772,0.097,21.92,110.1537,25.29,26.17,16.64,0,111.3,13.09,26.13,51.1
"2010-08-26 00:55:30",104092,2.498,84.3,1.958,0.105,21.89,110.1564,25.3,26.17,16.69,0,111.3,13.09,26.14,46.3
"2010-08-26 00:56:00",104093,2.695,86.9,4.426,0.169,21.96,110.1565,25.3,26.16,16.66,0,111.3,13.09,26.14,48.9
"2010-08-26 00:56:30",104094,2.568,90.3,1.59,0.102,21.96,110.1572,25.3,26.16,16.49,0,111.3,13.09,26.14,52.3
"2010-08-26 00:57:00",104095,2.41,90.4,0.935,0.139,21.98,110.1557,25.29,26.16,16.45,0,111.3,13.09,26.13,52.4
"2010-08-26 00:57:30",104096,2.851,88.3,1.395,0.093,21.97,110.1575,25.3,26.17,16.4,0,111.2,13.09,26.14,50.3
"2010-08-26 00:58:00",104097,2.927,89.6,2.095,0.229,21.99,110.16,25.31,26.17,16.41,0,111.3,13.09,26.15,51.6
"2010-08-26 00:58:30",104098,3.026,94,1.905,0.195,21.89,110.1594,25.3,26.16,16.39,0,111.3,13.09,26.14,56.0
"2010-08-26 00:59:00",104099,2.864,89.8,2.414,0.141,21.98,110.16,25.31,26.15,16.4,0,111.3,13.09,26.15,51.8
"2010-08-26 00:59:30",104100,2.929,95.5,2.58,0.16,21.98,110.1613,25.31,26.17,16.39,0,111.2,13.09,26.15,57.5
"2010-08-26 01:00:00",104101,2.929,98.6,1.143,0.104,22.08,110.1597,25.3,26.16,16.36,0,111.3,13.09,26.15,60.6
"2010-08-26 01:00:30",104102,3.07,101.7,2.09,0.107,21.99,110.1616,25.31,26.15,16.33,0,111.2,13.09,26.15,63.7
"2010-08-26 01:01:00",104103,2.875,107.5,0.755,0.103,21.99,110.1625,25.31,26.15,16.28,0,111.2,13.09,26.15,69.5
"2010-08-26 01:01:30",104104,2.699,106.4,1.699,0.113,21.93,110.1616,25.31,26.17,16.26,0,111.2,13.09,26.15,68.4
"2010-08-26 01:02:00",104105,2.622,102.5,2.133,0.052,22.05,110.1622,25.31,26.17,16.25,0,111.2,13.1,26.15,64.5
"2010-08-26 01:02:30",104106,2.903,99.5,1.008,0.108,22.1,110.1625,25.31,26.16,16.28,0,111.2,13.1,26.15,61.5
"2010-08-26 01:03:00",104107,3.068,102.1,1.74,0.075,22.01,110.1625,25.31,26.16,16.31,0,111.2,13.1,26.15,64.1
"2010-08-26 01:03:30",104108,2.859,100.6,1.981,0.073,22.06,110.1625,25.31,26.16,16.29,0,111.3,13.09,26.15,62.6
"2010-08-26 01:04:00",104109,3.226,99.6,1.811,0.124,22.11,110.1634,25.31,26.15,16.18,0,111.2,13.09,26.15,61.6
"2010-08-26 01:04:30",104110,3.272,99.3,1.353,0.044,22.13,110.1634,25.31,26.16,16.12,0,111.2,13.09,26.15,61.3
"2010-08-26 01:05:00",104111,3.256,102,1.282,0.059,22.05,110.1632,25.31,26.15,16.14,0,111.2,13.09,26.15,64.0
"2010-08-26 01:05:30",104112,3.185,102.1,0.709,0.048,22.1,110.1638,25.32,26.14,16.17,0,111.2,13.09,26.16,64.1
"2010-08-26 01:06:00",104113,3.118,104.1,1.544,0.118,22.07,110.1631,25.31,26.14,16.22,0,111.2,13.09,26.15,66.1
"2010-08-26 01:06:30",104114,2.997,104.7,1.937,0.131,22.1,110.1576,25.3,26.14,16.25,0,111.2,13.09,26.14,66.7
"2010-08-26 01:07:00",104115,2.824,104.2,2.252,0.06,22.05,110.1527,25.29,26.14,16.26,0,111.2,13.09,26.13,66.2
"2010-08-26 01:07:30",104116,2.862,105.6,1.716,0.077,22.02,110.1478,25.27,26.14,16.22,0,111.2,13.09,26.11,67.6
"2010-08-26 01:08:00",104117,2.894,107.5,1.909,0.086,22.12,110.1461,25.27,26.13,16.21,0,111.2,13.09,26.11,69.5
"2010-08-26 01:08:30",104118,2.775,104.5,2.596,0.096,22.09,110.1462,25.27,26.14,16.23,0,111.2,13.09,26.11,66.5
"2010-08-26 01:09:00",104119,2.911,103.8,1.399,0.094,22.03,110.1437,25.26,26.13,16.28,0,111.2,13.09,26.10,65.8
"2010-08-26 01:09:30",104120,2.861,101.2,1.199,0.073,22.12,110.1381,25.25,26.12,16.27,0,111.2,13.09,26.09,63.2
"2010-08-26 01:10:00",104121,2.907,99,1.476,0.093,22.2,110.1378,25.25,26.13,16.31,0,111.2,13.1,26.09,61.0
"2010-08-26 01:10:30",104122,2.942,99.3,1.072,0.099,22.23,110.1381,25.25,26.13,16.36,0,111.2,13.1,26.09,61.3
"2010-08-26 01:11:00",104123,3.116,98.8,1.987,0.101,22.24,110.1381,25.25,26.11,16.26,0,111.2,13.1,26.09,60.8
"2010-08-26 01:11:30",104124,3.066,97.3,1.463,0.098,22.23,110.1381,25.25,26.11,16.32,0,111.2,13.1,26.09,59.3
"2010-08-26 01:12:00",104125,3.276,94.4,1.518,0.121,22.14,110.1381,25.25,26.11,16.28,0,111.2,13.1,26.09,56.4
"2010-08-26 01:12:30",104126,2.888,94.4,1.743,0.086,22.16,110.1381,25.25,26.14,16.28,0,111.2,13.1,26.09,56.4
"2010-08-26 01:13:00",104127,2.713,98.3,2.239,0.081,22.24,110.1381,25.25,26.11,16.28,0,111.2,13.1,26.09,60.3
"2010-08-26 01:13:30",104128,2.835,100.6,1.272,0.092,22.26,110.1381,25.25,26.13,16.27,0,111.2,13.1,26.09,62.6
"2010-08-26 01:14:00",104129,2.813,96.8,1.494,0.111,22.25,110.1381,25.25,26.11,16.3,0,111.2,13.1,26.09,58.8
"2010-08-26 01:14:30",104130,2.778,99,0.977,0.052,22.28,110.1381,25.25,26.1,16.29,0,111.2,13.1,26.09,61.0
"2010-08-26 01:15:00",104131,2.734,99.5,0.609,0.046,22.32,110.1381,25.25,26.1,16.29,0,111.2,13.1,26.09,61.5
"2010-08-26 01:15:30",104132,2.601,96.9,1.565,0.064,22.23,110.1381,25.25,26.1,16.27,0,111.2,13.1,26.09,58.9
"2010-08-26 01:16:00",104133,2.608,97,1.119,0.068,22.25,110.1378,25.25,26.1,16.28,0,111.2,13.1,26.09,59.0
"2010-08-26 01:16:30",104134,2.687,95.4,1.627,0.151,22.22,110.1372,25.25,26.11,16.29,0,111.2,13.1,26.09,57.4
"2010-08-26 01:17:00",104135,2.91,93.5,0.613,0.055,22.25,110.1367,25.25,26.09,16.22,0,111.2,13.1,26.09,55.5
"2010-08-26 01:17:30",104136,2.874,92.9,1.519,0.126,22.27,110.1358,25.24,26.11,16.16,0,111.2,13.1,26.08,54.9
"2010-08-26 01:18:00",104137,2.795,92.1,1.872,0.096,22.3,110.1342,25.24,26.1,16.15,0,111.2,13.1,26.08,54.1
"2010-08-26 01:18:30",104138,2.766,93.5,3.118,0.138,22.31,110.1328,25.24,26.09,16.16,0,111.2,13.1,26.08,55.5
"2010-08-26 01:19:00",104139,2.618,93.7,1.13,0.053,22.29,110.1316,25.23,26.1,16.21,0,111.2,13.1,26.07,55.7
"2010-08-26 01:19:30",104140,2.496,93.9,1.537,0.075,22.3,110.1277,25.22,26.1,16.19,0,111.2,13.1,26.06,55.9
"2010-08-26 01:20:00",104141,2.568,91.6,2.59,0.166,22.38,110.1269,25.22,26.1,16.13,0,111.2,13.1,26.06,53.6
"2010-08-26 01:20:30",104142,2.734,89.2,1.173,0.065,22.39,110.1264,25.22,26.11,16.14,0,111.2,13.1,26.06,51.2
"2010-08-26 01:21:00",104143,2.522,89.1,1.935,0.076,22.39,110.1242,25.21,26.09,16.09,0,111.2,13.1,26.05,51.1
"2010-08-26 01:21:30",104144,2.418,89.6,1.48,0.05,22.41,110.1242,25.21,26.11,16.04,0,111.2,13.1,26.05,51.6
"2010-08-26 01:22:00",104145,2.439,92.6,1.435,0.052,22.4,110.1242,25.21,26.1,16.05,0,111.2,13.09,26.05,54.6
"2010-08-26 01:22:30",104146,2.478,95.2,1.15,0.053,22.39,110.1211,25.21,26.09,16.07,0,111.2,13.09,26.05,57.2
"2010-08-26 01:23:00",104147,2.565,97.8,1.45,0.061,22.41,110.1192,25.2,26.1,16.06,0,111.2,13.1,26.04,59.8
"2010-08-26 01:23:30",104148,2.71,97.5,2.075,0.054,22.38,110.1221,25.21,26.11,16.06,0,111.2,13.09,26.05,59.5
"2010-08-26 01:24:00",104149,2.738,100.1,0.541,0.029,22.47,110.1174,25.2,26.1,15.96,0,111.2,13.1,26.04,62.1
"2010-08-26 01:24:30",104150,2.831,98,2.136,0.074,22.41,110.1179,25.2,26.1,16,0,111.2,13.1,26.04,60.0
"2010-08-26 01:25:00",104151,2.951,95.7,1.198,0.123,22.41,110.1174,25.2,26.08,16.01,0,111.2,13.1,26.04,57.7
"2010-08-26 01:25:30",104152,3.092,93.7,1.43,0.079,22.4,110.122,25.21,26.08,16.1,0,111.2,13.1,26.05,55.7
"2010-08-26 01:26:00",104153,3.295,94.1,1.221,0.05,22.38,110.1239,25.21,26.07,16.21,0,111.2,13.1,26.05,56.1
"2010-08-26 01:26:30",104154,2.828,82.1,7.299,0.137,22.28,110.1121,25.18,26.05,16.7,0,111.2,13.11,26.02,44.1
"2010-08-26 01:27:00",104155,2.325,68.7,11.85,0.492,22.11,110.0901,25.13,26.04,17.48,0,111.2,13.11,25.97,30.7
"2010-08-26 01:27:30",104156,2.164,86.4,8.25,0.229,22.2,110.0616,25.05,25.98,17.45,0,111.2,13.11,25.89,48.4
"2010-08-26 01:28:00",104157,2.992,90.3,2.205,0.313,22.33,110.0471,25.02,25.95,17.18,0,111.2,13.11,25.85,52.3
"2010-08-26 01:28:30",104158,3.014,81.7,2.774,0.184,22.36,110.0376,24.99,25.92,17.42,0,111.2,13.11,25.83,43.7
"2010-08-26 01:29:00",104159,3.265,86.9,3.448,0.207,22.35,110.0314,24.98,25.9,16.97,0,111.2,13.11,25.81,48.9
"2010-08-26 01:29:30",104160,2.902,78.13,7.355,0.16,22.33,110.0312,24.97,25.89,17.21,0,111.2,13.11,25.81,40.1
"2010-08-26 01:30:00",104161,3.337,65.93,4.389,0.213,22.41,110.0312,24.97,25.88,16.91,0,111.2,13.11,25.81,27.9
"2010-08-26 01:30:30",104162,3.114,59.66,2.366,0.122,22.33,110.0318,24.98,25.86,16.97,0,111.2,13.11,25.82,21.7
"2010-08-26 01:31:00",104163,2.679,62.11,4.403,0.304,22.38,110.0298,24.97,25.83,17.01,0,111.2,13.11,25.81,24.1
"2010-08-26 01:31:30",104164,2.664,66.24,7.148,0.141,22.36,110.0216,24.95,25.83,17.14,0,111.2,13.11,25.79,28.2
"2010-08-26 01:32:00",104165,2.855,80.1,1.988,0.23,22.58,110.0238,24.96,25.82,16.51,0,111.2,13.11,25.79,42.1
"2010-08-26 01:32:30",104166,3.052,79.09,1.324,0.079,22.61,110.0355,24.99,25.82,16.28,0,111.2,13.11,25.82,41.1
"2010-08-26 01:33:00",104167,3.182,72.68,4.254,0.104,22.45,110.0404,25,25.84,16.74,0,111.1,13.11,25.84,34.7
"2010-08-26 01:33:30",104168,3.132,61.81,4.815,0.146,22.41,110.0404,25,25.84,16.95,0,111.1,13.11,25.84,23.8
"2010-08-26 01:34:00",104169,3.077,68,3.066,0.15,22.44,110.0387,24.99,25.84,16.94,0,111.1,13.12,25.83,30.0
"2010-08-26 01:34:30",104170,3.077,66.29,3.995,0.213,22.46,110.0281,24.97,25.83,16.88,0,111.1,13.11,25.81,28.3
"2010-08-26 01:35:00",104171,3.202,69.72,3.061,0.126,22.5,110.0278,24.97,25.83,16.63,0,111.1,13.12,25.80,31.7
"2010-08-26 01:35:30",104172,3.026,73.95,1.822,0.119,22.6,110.0342,24.98,25.82,16.29,0,111.1,13.12,25.82,35.9
"2010-08-26 01:36:00",104173,2.986,75.03,1.525,0.153,22.6,110.0404,25,25.83,16.14,0,111.1,13.12,25.84,37.0
"2010-08-26 01:36:30",104174,2.832,75.65,0.571,0.034,22.63,110.0407,25,25.86,16.08,0,111.1,13.12,25.84,37.7
"2010-08-26 01:37:00",104175,2.804,76.05,0.763,0.042,22.6,110.0486,25.02,25.87,15.48,0,111.1,13.12,25.86,38.1
"2010-08-26 01:37:30",104176,2.86,74.16,1.43,0.036,22.65,110.0626,25.06,25.88,15.79,0,111.1,13.12,25.89,36.2
"2010-08-26 01:38:00",104177,2.787,74.46,1.109,0.16,22.63,110.0738,25.08,25.9,15.77,0,111.1,13.12,25.92,36.5
"2010-08-26 01:38:30",104178,2.615,73.41,1.147,0.075,22.64,110.0741,25.08,25.91,15.84,0,111.1,13.12,25.92,35.4
"2010-08-26 01:39:00",104179,2.635,74.36,0.781,0.074,22.65,110.0741,25.08,25.93,15.86,0,111.1,13.12,25.92,36.4
"2010-08-26 01:39:30",104180,2.767,73.97,1.925,0.091,22.63,110.0741,25.08,25.94,15.7,0,111.1,13.12,25.92,36.0
"2010-08-26 01:40:00",104181,2.94,76.62,0.488,0.04,22.65,110.0741,25.08,25.96,15.4,0,111.1,13.12,25.92,38.6
"2010-08-26 01:40:30",104182,2.914,76.87,0.37,0.034,22.67,110.0747,25.09,25.97,15.43,0,111.1,13.12,25.93,38.9
"2010-08-26 01:41:00",104183,2.987,77.1,0.447,0.026,22.67,110.0781,25.1,25.97,15.34,0,111.1,13.12,25.93,39.1
"2010-08-26 01:41:30",104184,3.022,76.84,0.496,0.034,22.64,110.0845,25.11,25.99,15.34,0,111.1,13.12,25.95,38.8
"2010-08-26 01:42:00",104185,3.075,77.57,0.446,0.031,22.63,110.0914,25.13,25.99,15.32,0,111.1,13.12,25.97,39.6
"2010-08-26 01:42:30",104186,3.133,77.46,0.489,0.062,22.63,110.0957,25.14,25.99,15.27,0,111.1,13.12,25.98,39.5
"2010-08-26 01:43:00",104187,3.208,77.85,0.789,0.048,22.63,110.0976,25.15,25.99,15.13,0,111.1,13.12,25.98,39.8
"2010-08-26 01:43:30",104188,3.281,75.85,1.772,0.089,22.61,110.1012,25.15,25.99,15.13,0,111.1,13.12,25.99,37.8
"2010-08-26 01:44:00",104189,3.318,76.46,1.206,0.054,22.65,110.1019,25.16,26,15.07,0,111.1,13.12,26.00,38.5
"2010-08-26 01:44:30",104190,3.479,74.9,0.544,0.067,22.65,110.1019,25.16,25.99,15.05,0,111.1,13.12,26.00,36.9
"2010-08-26 01:45:00",104191,3.358,75.16,0.86,0.075,22.64,110.1019,25.16,26,15.04,0,111.1,13.12,26.00,37.2
"2010-08-26 01:45:30",104192,3.38,74.15,1.077,0.091,22.65,110.1026,25.16,26.02,15.01,0,111.1,13.12,26.00,36.2
"2010-08-26 01:46:00",104193,3.296,72.69,0.614,0.049,22.61,110.1035,25.16,26.01,14.9,0,111.1,13.12,26.00,34.7
"2010-08-26 01:46:30",104194,3.383,72.41,0.754,0.059,22.61,110.1072,25.17,26.01,14.93,0,111.1,13.12,26.01,34.4
"2010-08-26 01:47:00",104195,3.509,73.18,0.545,0.066,22.65,110.1094,25.18,26.02,14.92,0,111.1,13.13,26.02,35.2
"2010-08-26 01:47:30",104196,3.472,74.5,1.137,0.07,22.63,110.11,25.18,26.01,14.94,0,111.1,13.13,26.02,36.5
"2010-08-26 01:48:00",104197,3.518,75.66,0.7,0.032,22.67,110.1103,25.18,26.01,14.86,0,111.1,13.13,26.02,37.7
"2010-08-26 01:48:30",104198,3.5,75.64,0.782,0.044,22.66,110.1112,25.18,26.03,14.77,0,111.1,13.13,26.02,37.6
"2010-08-26 01:49:00",104199,3.426,76.27,0.69,0.084,22.68,110.1112,25.18,26,14.78,0,111.1,13.13,26.02,38.3
"2010-08-26 01:49:30",104200,3.277,76.64,0.632,0.038,22.63,110.1112,25.18,26.02,14.76,0,111.1,13.13,26.02,38.6